CDT,Max TemperatureF,Mean TemperatureF,Min TemperatureF,Max Dew PointF,MeanDew PointF,Min DewpointF,Max Humidity, Mean Humidity, Min Humidity, Max Sea Level PressureIn, Mean Sea Level PressureIn, Min Sea Level PressureIn, Max VisibilityMiles, Mean VisibilityMiles, Min VisibilityMiles, Max Wind SpeedMPH, Mean Wind SpeedMPH, Max Gust SpeedMPH,PrecipitationIn, CloudCover, Events, WindDirDegrees
2013-9-1,71,62,53,63,57,50,94,76,60,30.06,29.96,29.85,10,10,7,18,9,24,0.00,1,,328
2013-9-2,73,60,46,55,51,45,100,73,41,30.14,30.08,30.04,10,10,10,8,4,,0.00,0,,342
2013-9-3,80,64,48,66,57,46,94,77,54,30.06,30.02,29.97,10,10,10,9,4,,0.00,0,,142
2013-9-4,86,72,57,70,65,57,100,80,55,30.14,30.08,30.01,10,8,0,9,2,,0.00,1,Fog,57
2013-9-5,89,76,62,70,65,59,94,73,46,30.17,30.12,30.05,10,10,10,14,7,20,0.00,0,Thunderstorm,132
2013-9-6,93,80,68,72,66,63,88,66,36,30.04,29.93,29.84,10,10,7,10,6,,0.00,0,,185
2013-9-7,91,78,66,72,68,64,94,71,43,30.00,29.94,29.88,10,9,4,15,4,17,0.00,0,,21
2013-9-8,75,70,66,70,66,61,94,84,78,30.04,29.95,29.83,10,8,4,13,6,17,0.00,0,Rain,99
2013-9-9,93,80,66,72,68,64,94,75,38,29.83,29.72,29.64,10,8,2,18,7,26,0.04,0,Rain-Thunderstorm,204
2013-9-10,84,74,64,66,61,54,94,66,35,30.01,29.92,29.83,10,10,10,17,5,23,0.02,1,Rain,275
2013-9-11,89,74,57,61,53,43,88,55,21,30.16,30.07,30.01,10,10,3,16,7,25,0.00,0,,294
2013-9-12,77,64,50,54,49,46,87,63,34,30.28,30.23,30.17,10,10,10,14,6,18,0.00,1,,336
2013-9-13,78,60,42,52,46,39,100,65,29,30.26,30.17,30.04,10,10,3,12,3,18,0.00,0,,157
2013-9-14,66,57,48,59,53,46,93,83,72,30.04,29.91,29.80,10,10,5,13,6,16,0.42,4,Rain,144
2013-9-15,71,60,48,57,55,46,94,79,46,30.32,30.13,29.85,10,10,1,16,8,18,0.30,5,Rain,23
2013-9-16,71,56,42,54,47,43,100,75,40,30.37,30.29,30.17,10,8,0,12,4,16,0.00,2,Fog,140
2013-9-17,69,60,51,61,56,48,94,84,64,30.17,30.00,29.85,10,9,2,17,10,23,0.00,5,Rain,151
2013-9-18,91,76,62,70,67,61,100,76,43,29.84,29.69,29.59,10,7,1,16,10,22,0.00,2,,153
2013-9-19,78,68,57,70,59,46,94,70,32,29.91,29.76,29.60,10,10,2,20,8,26,1.23,3,Rain-Thunderstorm,308
2013-9-20,64,55,46,54,48,43,93,75,48,29.99,29.95,29.89,10,10,3,18,9,26,0.01,5,Rain,308
2013-9-21,69,54,39,48,44,39,100,73,38,30.02,29.95,29.87,10,10,10,8,3,,0.00,0,,116
2013-9-22,87,69,51,55,49,45,82,57,24,29.88,29.77,29.69,10,10,10,22,11,31,0.00,0,,147
2013-9-23,82,70,59,54,51,46,77,57,28,29.85,29.76,29.72,10,10,10,22,12,31,0.00,0,,153
2013-9-24,75,65,55,55,53,52,88,74,44,29.95,29.90,29.85,10,10,10,8,5,,0.00,0,,143
2013-9-25,78,64,50,57,51,46,94,66,32,29.92,29.85,29.75,10,8,2,20,7,26,0.00,0,,145
2013-9-26,89,74,60,61,57,54,82,59,31,29.79,29.73,29.69,10,10,10,24,14,32,0.00,1,,156
2013-9-27,82,70,59,66,61,54,88,72,48,29.78,29.74,29.67,10,10,5,16,9,28,0.09,1,Rain-Thunderstorm,157
2013-9-28,66,58,50,54,48,39,94,73,37,29.92,29.79,29.65,10,10,2,24,10,31,0.31,4,Rain,282
2013-9-29,80,62,44,46,44,39,87,54,23,29.92,29.80,29.64,10,10,10,16,8,22,0.00,0,,189
2013-9-30,84,70,57,52,47,45,67,43,25,29.64,29.57,29.50,10,10,10,18,10,26,0.00,0,,207